Location: Newark
(52.5694°N, 1.3190°W)
Time: 00:23:54
(UTC+00:00)

N. Korean satellite - Pass Details

Date: 29 January 2020
Orbit: 456 x 505 km, 97.2° (Epoch: 24 February)

Event Time Altitude Azimuth Distance (km) Brightness Sun altitude
Rises 17:47:08 0° 198° (SSW) 2,466 10.7 -9.6°
Reaches altitude 10° 17:49:29 10° 215° (SW) 1,601 10.0 -9.9°
Maximum altitude 17:52:12 21° 267° (W) 1,076 9.4 -10.3°
Drops below altitude 10° 17:54:56 10° 319° (NW) 1,624 9.6 -10.7°
Sets 17:57:21 0° 336° (NNW) 2,514 10.3 -11.0°
